Change the Weather History Date:

Wednesday, October 10, 2012

  Actual Average Record
Temperature  
Mean Temperature 56 °F -  
Max Temperature 63 °F 64 °F 80 °F (1997)
Min Temperature 48 °F 45 °F 35 °F (2001)
Degree Days  
Heating Degree Days 9    
Growing Degree Days 6 (Base 50)    
Moisture  
Dew Point 51 °F    
Average Humidity 92    
Maximum Humidity 100    
Minimum Humidity 52    
Precipitation  
Precipitation 0.11 in - - ()
Sea Level Pressure  
Sea Level Pressure 30.00 in    
Wind  
Wind Speed 2 mph (SW)    
Max Wind Speed 16 mph    
Max Gust Speed 23 mph    
Visibility 6 miles    
Events Rain    
Averages and records for this station are not official NWS values.
T = Trace of Precipitation, MM = Missing Value Source: NWS Daily Summary

Daily Weather History Graph

Daily Weather History Graph

Search for Another Location

Airport or City:

Trip Planner

Search our weather history database for the weather conditions in past years. The results will help you decide how hot, cold, wet, or windy it might be!

Date:

Astronomy

Oct. 10, 2012 Rise Set
Actual Time 7:12 AM EDT 6:33 PM EDT
Civil Twilight 6:45 AM EDT 7:00 PM EDT
Nautical Twilight 6:13 AM EDT 7:32 PM EDT
Astronomical Twilight 5:41 AM EDT 8:03 PM EDT
Moon 1:45 AM EDT (10/10) 3:35 PM EDT (10/10)
Length of Visible Light 12h 15m
Length of Day
11h 20m
Waning Crescent, 27% of the Moon is Illuminated
Oct 10
Waning Crescent
Oct 15
New
Oct 21
First Quarter
Oct 29
Full
Nov 6
Last Quarter

Hourly Weather History & Observations

Time (EDT) Temp. Dew Point Humidity Pressure Visibility Wind Dir Wind Speed Gust Speed Precip Events Conditions
12:20 AM 51.8 °F 51.8 °F 100% 30.08 in 5.0 mi Calm Calm - N/A   Overcast
12:55 AM 52.0 °F 51.8 °F 99% 30.06 in 7.0 mi Calm Calm - 0.01 in   Overcast
1:10 AM 51.8 °F 51.8 °F 100% 30.06 in 6.0 mi Calm Calm - N/A Rain Light Rain
1:29 AM 51.8 °F 51.8 °F 100% 30.06 in 2.5 mi Calm Calm - N/A Rain Light Rain
1:39 AM 51.8 °F 51.8 °F 100% 30.06 in 3.0 mi Calm Calm - N/A Rain Light Rain
1:43 AM 51.8 °F 51.8 °F 100% 30.06 in 2.5 mi Calm Calm - N/A Rain Light Rain
1:44 AM 51.8 °F 51.8 °F 100% 30.05 in 2.5 mi Calm Calm - N/A Rain Light Rain
1:48 AM 51.8 °F 51.8 °F 100% 30.05 in 2.0 mi Calm Calm - N/A Rain Rain
1:49 AM 51.8 °F 51.8 °F 100% 30.05 in 2.0 mi Calm Calm - N/A Rain Light Rain
1:55 AM 52.0 °F 51.8 °F 99% 30.05 in 3.0 mi Calm Calm - 0.06 in   Light Drizzle
1:58 AM 51.8 °F 51.8 °F 100% 30.05 in 3.0 mi Calm Calm - N/A   Light Drizzle
2:00 AM 51.8 °F 51.8 °F 100% 30.05 in 2.5 mi Calm Calm - N/A   Light Drizzle
2:01 AM 51.8 °F 51.8 °F 100% 30.05 in 2.5 mi Calm Calm - N/A   Light Drizzle
2:20 AM 51.8 °F 51.8 °F 100% 30.05 in 2.5 mi Calm Calm - N/A   Light Drizzle
2:25 AM 51.8 °F 51.8 °F 100% 30.05 in 2.5 mi Calm Calm - N/A   Light Drizzle
2:31 AM 51.8 °F 51.8 °F 100% 30.04 in 2.5 mi Calm Calm - N/A   Overcast
2:39 AM 51.8 °F 51.8 °F 100% 30.04 in 2.5 mi Calm Calm - N/A   Overcast
2:43 AM 51.8 °F 51.8 °F 100% 30.03 in 2.5 mi Calm Calm - N/A   Light Drizzle
2:55 AM 52.0 °F 51.6 °F 99% 30.03 in 2.5 mi Calm Calm - 0.01 in   Light Drizzle
2:57 AM 51.8 °F 51.8 °F 100% 30.02 in 3.0 mi Calm Calm - N/A   Light Drizzle
3:00 AM 51.8 °F 51.8 °F 100% 30.02 in 3.0 mi Calm Calm - N/A   Overcast
3:10 AM 51.8 °F 51.8 °F 100% 30.03 in 5.0 mi Calm Calm - N/A   Light Drizzle
3:23 AM 51.8 °F 51.8 °F 100% 30.02 in 6.0 mi Calm Calm - N/A   Overcast
3:41 AM 51.8 °F 51.8 °F 100% 30.01 in 5.0 mi Calm Calm - N/A   Overcast
3:55 AM 52.2 °F 52.0 °F 99% 30.01 in 4.0 mi Calm Calm - 0.00 in   Overcast
3:59 AM 51.8 °F 51.8 °F 100% 30.01 in 4.0 mi Calm Calm - N/A   Overcast
4:03 AM 51.8 °F 51.8 °F 100% 30.01 in 3.0 mi Calm Calm - N/A   Light Drizzle
4:08 AM 51.8 °F 51.8 °F 100% 30.01 in 2.5 mi Calm Calm - N/A   Light Drizzle
4:32 AM 51.8 °F 51.8 °F 100% 30.00 in 2.5 mi Calm Calm - N/A   Light Drizzle
4:37 AM 51.8 °F 51.8 °F 100% 30.00 in 2.5 mi Calm Calm - N/A   Light Drizzle
4:45 AM 51.8 °F 51.8 °F 100% 30.00 in 2.5 mi Calm Calm - N/A   Overcast
4:51 AM 51.8 °F 51.8 °F 100% 30.00 in 3.0 mi Calm Calm - N/A   Overcast
4:55 AM 52.2 °F 52.0 °F 99% 30.00 in 3.0 mi Calm Calm - 0.03 in   Overcast
5:09 AM 51.8 °F 51.8 °F 100% 29.99 in 4.0 mi Calm Calm - N/A   Overcast
5:53 AM 51.8 °F 51.8 °F 100% 30.00 in 9.0 mi Calm Calm - N/A   Overcast
5:55 AM 52.5 °F 52.3 °F 99% 29.99 in 9.0 mi Calm Calm - N/A   Overcast
6:04 AM 51.8 °F 51.8 °F 100% 30.00 in 8.0 mi Calm Calm - N/A   Overcast
6:10 AM 51.8 °F 51.8 °F 100% 29.99 in 10.0 mi Calm Calm - N/A   Overcast
6:16 AM 51.8 °F 51.8 °F 100% 29.99 in 10.0 mi Calm Calm - N/A   Overcast
6:55 AM 52.7 °F 52.3 °F 99% 29.99 in 10.0 mi Calm Calm - N/A   Overcast
7:00 AM 53.6 °F 51.8 °F 94% 29.99 in 10.0 mi Calm Calm - N/A   Overcast
7:19 AM 53.6 °F 51.8 °F 94% 29.99 in 9.0 mi SW 3.5 mph - N/A   Overcast
7:22 AM 53.6 °F 51.8 °F 94% 29.99 in 8.0 mi Calm Calm - N/A   Overcast
7:30 AM 53.6 °F 51.8 °F 94% 29.99 in 6.0 mi SW 3.5 mph - N/A   Light Drizzle
7:32 AM 53.6 °F 51.8 °F 94% 29.99 in 6.0 mi Calm Calm - N/A   Light Drizzle
7:39 AM 53.6 °F 51.8 °F 94% 29.98 in 5.0 mi WSW 3.5 mph - N/A   Overcast
7:55 AM 52.9 °F 52.5 °F 99% 29.98 in 5.0 mi SSW 3.5 mph - 0.00 in   Overcast
8:13 AM 53.6 °F 51.8 °F 94% 29.99 in 2.5 mi SW 4.6 mph - N/A   Overcast
8:19 AM 53.6 °F 51.8 °F 94% 29.99 in 1.8 mi SSW 3.5 mph - N/A   Overcast
8:21 AM 53.6 °F 51.8 °F 94% 29.98 in 1.5 mi SW 4.6 mph - N/A   Overcast
8:23 AM 53.6 °F 51.8 °F 94% 29.98 in 1.2 mi SW 4.6 mph - N/A   Overcast
8:26 AM 53.6 °F 51.8 °F 94% 29.98 in 1.0 mi SW 5.8 mph - N/A   Mist
8:34 AM 53.6 °F 53.6 °F 100% 29.98 in 1.2 mi SW 5.8 mph - N/A   Overcast
8:37 AM 53.6 °F 53.6 °F 100% 29.98 in 1.5 mi SW 6.9 mph - N/A   Overcast
8:49 AM 53.6 °F 53.6 °F 100% 29.98 in 1.8 mi SW 6.9 mph - N/A   Overcast
8:51 AM 53.6 °F 53.6 °F 100% 29.98 in 2.0 mi SW 6.9 mph - N/A   Overcast
8:54 AM 53.6 °F 53.6 °F 100% 29.98 in 3.0 mi SW 6.9 mph - N/A   Overcast
8:55 AM 53.4 °F 53.1 °F 99% 29.98 in 3.0 mi SW 6.9 mph - N/A   Overcast
9:07 AM 53.6 °F 53.6 °F 100% 29.99 in 6.0 mi WSW 9.2 mph - N/A   Overcast
9:27 AM 53.6 °F 53.6 °F 100% 29.98 in 9.0 mi SW 5.8 mph - N/A   Overcast
9:28 AM 53.6 °F 53.6 °F 100% 29.98 in 9.0 mi SW 4.6 mph - N/A   Overcast
9:30 AM 53.6 °F 53.6 °F 100% 29.96 in 5.0 mi SSW 5.8 mph - N/A   Overcast
9:55 AM 55.0 °F 54.0 °F 96% 29.97 in 10.0 mi SW 4.6 mph - N/A   Overcast
10:00 AM 55.4 °F 53.6 °F 94% 29.97 in 10.0 mi WSW 5.8 mph - N/A   Overcast
10:05 AM 55.4 °F 53.6 °F 94% 29.97 in 10.0 mi WSW 6.9 mph - N/A   Mostly Cloudy
10:16 AM 55.4 °F 53.6 °F 94% 29.96 in 10.0 mi SW 6.9 mph - N/A   Mostly Cloudy
10:20 AM 55.4 °F 53.6 °F 94% 29.96 in 10.0 mi SW 9.2 mph - N/A   Mostly Cloudy
10:55 AM 58.3 °F 52.0 °F 80% 29.96 in 10.0 mi SW 11.5 mph - N/A   Scattered Clouds
12:55 PM 60.6 °F 44.4 °F 55% 29.92 in 10.0 mi SW 15.0 mph - N/A   Scattered Clouds
1:55 PM 59.9 °F 45.3 °F 59% 29.89 in 10.0 mi SW 11.5 mph - N/A   Mostly Cloudy
2:55 PM 62.1 °F 45.0 °F 53% 29.86 in 10.0 mi SSW 10.4 mph - N/A   Partly Cloudy
3:55 PM 62.6 °F 45.0 °F 52% 29.85 in 10.0 mi WSW 10.4 mph - N/A   Mostly Cloudy
4:55 PM 62.1 °F 45.9 °F 55% 29.85 in 10.0 mi WSW 6.9 mph - N/A   Overcast
5:55 PM 60.4 °F 45.3 °F 57% 29.88 in 10.0 mi WNW 12.7 mph 23.0 mph N/A   Mostly Cloudy
6:55 PM 57.0 °F 43.2 °F 60% 29.92 in 10.0 mi WNW 16.1 mph 21.9 mph N/A   Mostly Cloudy
7:55 PM 54.7 °F 41.9 °F 62% 29.96 in 10.0 mi West 8.1 mph - N/A   Clear
8:55 PM 54.0 °F 38.8 °F 57% 29.98 in 10.0 mi WNW 13.8 mph 19.6 mph N/A   Clear
9:55 PM 51.8 °F 39.6 °F 63% 30.03 in 10.0 mi West 10.4 mph - N/A   Clear
10:55 PM 50.2 °F 39.6 °F 67% 30.05 in 10.0 mi WSW 3.5 mph - N/A   Clear
11:55 PM 48.9 °F 38.5 °F 67% 30.06 in 10.0 mi West 6.9 mph - N/A   Clear